Hourly Data Report for June 16, 2006

TORONTO CITY
ONTARIO

43°40'00.000" N
79°24'00.000" W
112.50 m
6158355
71508
XTO

Download Data

Hourly Data (June 2006)
Hourly Data Report for June 16, 2006
TIME
LST
Temp Definition
°C
Dew Point Definition
°C
Rel Hum Definition
%
Precip. Amount Definition
mm

Wind Dir Definition
10's deg

Wind Spd Definition
km/h
Visibility Definition
km
Stn Press Definition
kPa
Hmdx Definition


Wind Chill Definition


Weather Definition


00:00 16.9 6.9 52   LegendMM LegendMM   100.55     LegendNANA
01:00 16.5 8.1 58   LegendMM LegendMM   100.55     LegendNANA
02:00 16.2 8.4 60   LegendMM LegendMM   100.57     LegendNANA
03:00 15.7 8.4 62   LegendMM LegendMM   100.55     LegendNANA
04:00 14.7 8.1 65   LegendMM LegendMM   100.62     LegendNANA
05:00 14.4 8.5 68   LegendMM LegendMM   100.69     LegendNANA
06:00 15.2 10.0 71   LegendMM LegendMM   100.75     LegendNANA
07:00 18.7 9.7 56   LegendMM LegendMM   100.81     LegendNANA
08:00 20.5 11.4 56   LegendMM LegendMM   100.82     LegendNANA
09:00 22.8 11.1 48   LegendMM LegendMM   100.80 25   LegendNANA
10:00 22.3 11.0 49   LegendMM LegendMM   100.75     LegendNANA
11:00 23.9 11.5 46   LegendMM LegendMM   100.72 26   LegendNANA
12:00 26.1 12.5 43   LegendMM LegendMM   100.67 29   LegendNANA
13:00 26.0 10.4 38   LegendMM LegendMM   100.62 27   LegendNANA
14:00 26.4 10.2 36   LegendMM LegendMM   100.58 28   LegendNANA
15:00 26.4 12.2 41   LegendMM LegendMM   100.55 29   LegendNANA
16:00 25.8 11.6 41   LegendMM LegendMM   100.51 28   LegendNANA
17:00 24.7 11.2 43   LegendMM LegendMM   100.42 27   LegendNANA
18:00 23.7 11.8 47   LegendMM LegendMM   100.33 26   LegendNANA
19:00 22.6 11.1 48   LegendMM LegendMM   100.33     LegendNANA
20:00 22.2 11.0 49   LegendMM LegendMM   100.30     LegendNANA
21:00 22.2 11.9 52   LegendMM LegendMM   100.32     LegendNANA
22:00 21.7 11.9 54   LegendMM LegendMM   100.27     LegendNANA
23:00 21.1 11.3 54   LegendMM LegendMM   100.21     LegendNANA

Notes on Data Quality.

Legend

  • E = Estimated
  • M = Missing
  • NA = Not Available*
  • [empty] = Indicates an unobserved value
Date modified: